Regional Weather Roundup
Issued by NWS Charleston, WV

Home | Current Version | Previous Version | Text Only | Print | Product List | Glossary Off
Versions: 1 2 3 4 5 6 7 8 9 10 11 12 13 14 15 16 17 18 19 20 21 22 23 24 25 26 27 28 29 30 31 32 33 34 35 36 37 38 39 40 41 42 43 44 45 46 47 48 49 50

000
ASUS41 KRLX 061510
RWRRLX
West Virginia Regional Weather Roundup
National Weather Service Charleston WV
1100 AM EDT WED MAY 06 2015

Note: "fair" indicates few or no clouds below 12,000 feet with no
significant weather and/or obstructions to visibility.

WVZ003-061600-
Northern Panhandle of West Virginia

CITY           SKY/WX    TMP DP  RH WIND       PRES   REMARKS
WHEELING       SUNNY     72  60  66 CALM      30.22F
$$

WVZ009-061600-
Northwest West Virginia

CITY           SKY/WX    TMP DP  RH WIND       PRES   REMARKS
PARKERSBURG    SUNNY     79  58  48 CALM      30.25F
$$

WVZ006-061600-
Western West Virginia

CITY           SKY/WX    TMP DP  RH WIND       PRES   REMARKS
HUNTINGTON     SUNNY     77  56  48 CALM      30.23S
$$

WVZ015-061600-
West Central West Virginia

CITY           SKY/WX    TMP DP  RH WIND       PRES   REMARKS
CHARLESTON     MOSUNNY   77  58  51 CALM      30.23F
$$

WVZ022-031-061600-
North Central West Virginia

CITY           SKY/WX    TMP DP  RH WIND       PRES   REMARKS
CLARKSBURG     SUNNY     76  57  51 CALM      30.24S
MORGANTOWN     SUNNY     77  54  44 CALM      30.24F
$$

WVZ025-035-042-045-061600-
Southern West Virginia

CITY           SKY/WX    TMP DP  RH WIND       PRES   REMARKS
BECKLEY        CLOUDY    72  52  49 VRB3      30.30S
LOGAN          CLOUDY    75  57  53 CALM      30.23S
BLUEFIELD      MOSUNNY   76  52  43 MISG      30.31F
LEWISBURG      MOSUNNY   71  55  56 CALM      30.29F
$$

WVZ047-061600-
Northern Mountains of West Virginia

CITY           SKY/WX    TMP DP  RH WIND       PRES   REMARKS
ELKINS         SUNNY     75  54  47 CALM      30.28F
$$

WVZ052-061600-
Eastern Panhandle of West Virginia

CITY           SKY/WX    TMP DP  RH WIND       PRES   REMARKS
MARTINSBURG    SUNNY     74  60  61 E3        30.23F
PETERSBURG     SUNNY     75  59  56 CALM      30.23F
$$


USA.gov is the U.S. government's official web portal to all federal, state and local government web resources and services.